Time,TemperatureF,DewpointF,PressureIn,WindDirection,WindDirectionDegrees,WindSpeedMPH,WindSpeedGustMPH,Humidity,HourlyPrecipIn,Conditions,Clouds,dailyrainin,SoftwareType,DateUTC
2013-03-04 00:01:00,47.0,38.0,29.89,ENE,59,2.0,5.0,70,0.00,,,0.40,,2013-03-03 22:01:00,
2013-03-04 00:11:00,47.0,38.0,29.89,ENE,59,2.0,5.0,70,0.00,,,0.40,,2013-03-03 22:11:00,
2013-03-04 00:52:00,46.0,37.0,29.89,ENE,59,0.0,0.0,71,0.00,,,0.40,,2013-03-03 22:52:00,
2013-03-04 01:01:00,46.0,37.0,29.89,ENE,59,0.0,0.0,72,0.00,,,0.40,,2013-03-03 23:01:00,
2013-03-04 01:11:00,46.0,37.0,29.89,ENE,59,0.0,0.0,72,0.00,,,0.40,,2013-03-03 23:11:00,
2013-03-04 01:21:00,46.0,38.0,29.90,ENE,59,0.0,0.0,73,0.00,,,0.40,,2013-03-03 23:21:00,
2013-03-04 01:31:00,46.0,38.0,29.90,ENE,59,1.0,4.0,74,0.00,,,0.40,,2013-03-03 23:31:00,
2013-03-04 01:41:00,46.0,38.0,29.90,ENE,59,1.0,4.0,74,0.00,,,0.40,,2013-03-03 23:41:00,
2013-03-04 01:52:00,46.0,39.0,29.90,ENE,59,2.0,5.0,75,0.00,,,0.40,,2013-03-03 23:52:00,
2013-03-04 02:01:00,46.0,39.0,29.91,ENE,59,1.0,5.0,75,0.00,,,0.40,,2013-03-04 00:01:00,
2013-03-04 02:11:00,46.0,39.0,29.91,ENE,59,1.0,5.0,75,0.00,,,0.40,,2013-03-04 00:11:00,
2013-03-04 02:21:00,46.0,39.0,29.91,ENE,59,1.0,5.0,76,0.00,,,0.40,,2013-03-04 00:21:00,
2013-03-04 02:32:00,46.0,39.0,29.90,ENE,59,2.0,5.0,76,0.00,,,0.40,,2013-03-04 00:32:00,
2013-03-04 02:41:00,46.0,39.0,29.90,ENE,59,2.0,5.0,76,0.00,,,0.40,,2013-03-04 00:41:00,
2013-03-04 02:51:00,45.0,38.0,29.91,ENE,59,1.0,5.0,76,0.00,,,0.40,,2013-03-04 00:51:00,
2013-03-04 03:01:00,45.0,38.0,29.91,ENE,59,0.0,3.0,76,0.00,,,0.40,,2013-03-04 01:01:00,
2013-03-04 03:11:00,45.0,38.0,29.91,ENE,59,0.0,3.0,76,0.00,,,0.40,,2013-03-04 01:11:00,
2013-03-04 03:21:00,45.0,38.0,29.91,ENE,59,1.0,3.0,77,0.00,,,0.40,,2013-03-04 01:21:00,
2013-03-04 03:31:00,45.0,38.0,29.91,ENE,59,2.0,4.0,77,0.00,,,0.40,,2013-03-04 01:31:00,
2013-03-04 03:41:00,45.0,38.0,29.91,ENE,59,2.0,4.0,77,0.00,,,0.40,,2013-03-04 01:41:00,
2013-03-04 03:51:00,45.0,38.0,29.91,ENE,59,2.0,4.0,77,0.00,,,0.39,,2013-03-04 01:51:00,
2013-03-04 04:01:00,45.0,38.0,29.91,ENE,59,1.0,3.0,77,0.00,,,0.39,,2013-03-04 02:01:00,
2013-03-04 04:11:00,45.0,38.0,29.91,ENE,59,4.0,7.0,76,0.00,,,0.39,,2013-03-04 02:11:00,
2013-03-04 04:22:00,45.0,38.0,29.91,ENE,59,4.0,7.0,76,0.00,,,0.39,,2013-03-04 02:22:00,
2013-03-04 04:31:00,45.0,38.0,29.91,ENE,60,1.0,6.0,75,0.00,,,0.39,,2013-03-04 02:31:00,
2013-03-04 04:41:00,45.0,38.0,29.91,ENE,60,1.0,6.0,75,0.00,,,0.39,,2013-03-04 02:41:00,
2013-03-04 04:52:00,45.0,38.0,29.91,ENE,60,0.0,6.0,75,0.00,,,0.39,,2013-03-04 02:52:00,
2013-03-04 06:01:00,45.0,37.0,29.92,NE,56,1.0,5.0,73,0.00,,,0.28,,2013-03-04 04:01:00,
2013-03-04 06:11:00,45.0,37.0,29.92,NE,56,1.0,5.0,73,0.00,,,0.28,,2013-03-04 04:11:00,
2013-03-04 06:21:00,45.0,37.0,29.92,NE,56,2.0,5.0,73,0.00,,,0.28,,2013-03-04 04:21:00,
2013-03-04 06:31:00,45.0,36.0,29.93,NE,56,1.0,3.0,71,0.00,,,0.28,,2013-03-04 04:31:00,
2013-03-04 06:41:00,45.0,36.0,29.93,NE,56,1.0,3.0,71,0.00,,,0.28,,2013-03-04 04:41:00,
2013-03-04 06:51:00,45.0,36.0,29.93,NE,56,0.0,2.0,71,0.00,,,0.16,,2013-03-04 04:51:00,
2013-03-04 07:01:00,44.0,35.0,29.93,NE,56,0.0,0.0,71,0.00,,,0.16,,2013-03-04 05:01:00,
2013-03-04 07:11:00,44.0,35.0,29.93,NE,56,0.0,0.0,71,0.00,,,0.16,,2013-03-04 05:11:00,
2013-03-04 07:22:00,44.0,36.0,29.94,NE,56,1.0,3.0,72,0.00,,,0.16,,2013-03-04 05:22:00,
2013-03-04 07:31:00,44.0,36.0,29.95,ENE,57,3.0,4.0,72,0.00,,,0.16,,2013-03-04 05:31:00,
2013-03-04 07:42:00,44.0,36.0,29.95,ENE,57,4.0,5.0,72,0.00,,,0.08,,2013-03-04 05:42:00,
2013-03-04 07:52:00,44.0,36.0,29.95,ENE,57,4.0,5.0,72,0.00,,,0.08,,2013-03-04 05:52:00,
2013-03-04 08:01:00,44.0,36.0,29.95,ENE,57,4.0,5.0,72,0.00,,,0.08,,2013-03-04 06:01:00,
2013-03-04 08:11:00,44.0,36.0,29.95,ENE,57,4.0,5.0,72,0.00,,,0.08,,2013-03-04 06:11:00,
2013-03-04 08:21:00,45.0,35.0,29.96,ENE,57,1.0,5.0,69,0.00,,,0.08,,2013-03-04 06:21:00,
2013-03-04 08:31:00,47.0,37.0,29.96,ENE,57,1.0,3.0,68,0.00,,,0.08,,2013-03-04 06:31:00,
2013-03-04 08:42:00,47.0,37.0,29.96,ENE,57,1.0,3.0,68,0.00,,,0.08,,2013-03-04 06:42:00,
2013-03-04 08:51:00,48.0,37.0,29.97,ENE,57,0.0,3.0,65,0.00,,,0.02,,2013-03-04 06:51:00,
2013-03-04 09:01:00,49.0,37.0,29.97,ENE,57,1.0,3.0,62,0.00,,,0.02,,2013-03-04 07:01:00,
2013-03-04 09:11:00,49.0,37.0,29.97,ENE,57,1.0,3.0,62,0.00,,,0.02,,2013-03-04 07:11:00,
2013-03-04 09:21:00,50.0,36.0,29.97,ENE,57,1.0,4.0,58,0.00,,,0.02,,2013-03-04 07:21:00,
2013-03-04 09:31:00,51.0,37.0,29.98,ENE,57,0.0,2.0,58,0.00,,,0.02,,2013-03-04 07:31:00,
2013-03-04 09:41:00,51.0,37.0,29.98,ENE,57,0.0,2.0,58,0.00,,,0.02,,2013-03-04 07:41:00,
2013-03-04 09:51:00,51.0,37.0,29.98,ENE,57,0.0,4.0,58,0.00,,,0.00,,2013-03-04 07:51:00,
2013-03-04 10:01:00,51.0,36.0,29.98,ENE,57,1.0,4.0,57,0.00,,,0.00,,2013-03-04 08:01:00,
2013-03-04 10:11:00,52.0,37.0,29.98,NE,56,2.0,5.0,57,0.00,,,0.00,,2013-03-04 08:11:00,
2013-03-04 10:21:00,52.0,37.0,29.98,NE,56,2.0,5.0,57,0.00,,,0.00,,2013-03-04 08:21:00,
2013-03-04 10:31:00,53.0,37.0,29.98,NE,56,2.0,5.0,55,0.00,,,0.00,,2013-03-04 08:31:00,
2013-03-04 10:41:00,53.0,37.0,29.98,NE,56,2.0,5.0,55,0.00,,,0.00,,2013-03-04 08:41:00,
2013-03-04 10:52:00,53.0,37.0,29.99,NW,321,4.0,10.0,54,0.00,,,0.00,,2013-03-04 08:52:00,
2013-03-04 11:01:00,53.0,37.0,29.99,NW,325,4.0,8.0,55,0.00,,,0.00,,2013-03-04 09:01:00,
2013-03-04 11:11:00,53.0,37.0,29.99,NW,325,4.0,8.0,55,0.00,,,0.00,,2013-03-04 09:11:00,
2013-03-04 11:21:00,54.0,37.0,29.98,NNW,333,3.0,7.0,53,0.00,,,0.00,,2013-03-04 09:21:00,
2013-03-04 11:31:00,55.0,38.0,29.99,NNW,344,1.0,9.0,53,0.00,,,0.00,,2013-03-04 09:31:00,
2013-03-04 11:41:00,55.0,38.0,29.99,NNW,344,1.0,9.0,53,0.00,,,0.00,,2013-03-04 09:41:00,
2013-03-04 11:51:00,55.0,38.0,29.98,NNW,340,4.0,7.0,52,0.00,,,0.00,,2013-03-04 09:51:00,
2013-03-04 12:01:00,55.0,37.0,29.98,NNW,339,4.0,9.0,51,0.00,,,0.00,,2013-03-04 10:01:00,
2013-03-04 12:11:00,55.0,37.0,29.98,NNW,339,4.0,9.0,51,0.00,,,0.00,,2013-03-04 10:11:00,
2013-03-04 12:21:00,57.0,39.0,29.98,NE,43,6.0,11.0,50,0.00,,,0.00,,2013-03-04 10:21:00,
2013-03-04 12:31:00,56.0,37.0,29.98,NNW,342,3.0,10.0,49,0.00,,,0.00,,2013-03-04 10:31:00,
2013-03-04 12:41:00,57.0,38.0,29.98,NE,45,1.0,7.0,49,0.00,,,0.00,,2013-03-04 10:41:00,
2013-03-04 12:52:00,57.0,38.0,29.98,NE,45,1.0,7.0,49,0.00,,,0.00,,2013-03-04 10:52:00,
2013-03-04 13:01:00,57.0,38.0,29.98,NE,43,1.0,6.0,49,0.00,,,0.00,,2013-03-04 11:01:00,
2013-03-04 13:11:00,57.0,38.0,29.98,NE,43,1.0,6.0,49,0.00,,,0.00,,2013-03-04 11:11:00,
2013-03-04 13:21:00,59.0,38.0,29.98,NE,48,3.0,6.0,46,0.00,,,0.00,,2013-03-04 11:21:00,
2013-03-04 13:31:00,59.0,39.0,29.98,NE,45,1.0,5.0,47,0.00,,,0.00,,2013-03-04 11:31:00,
2013-03-04 13:41:00,59.0,39.0,29.98,NE,45,1.0,5.0,47,0.00,,,0.00,,2013-03-04 11:41:00,
2013-03-04 13:52:00,59.0,41.0,29.98,SSW,198,5.0,9.0,51,0.00,,,0.00,,2013-03-04 11:52:00,
2013-03-04 14:01:00,59.0,41.0,29.98,South,189,4.0,12.0,52,0.00,,,0.00,,2013-03-04 12:01:00,
2013-03-04 14:11:00,58.0,40.0,29.98,SSW,199,1.0,9.0,51,0.00,,,0.00,,2013-03-04 12:11:00,
2013-03-04 14:21:00,58.0,40.0,29.98,SSW,199,1.0,9.0,51,0.00,,,0.00,,2013-03-04 12:21:00,
2013-03-04 14:32:00,58.0,41.0,29.98,South,179,5.0,12.0,54,0.00,,,0.00,,2013-03-04 12:32:00,
2013-03-04 14:42:00,58.0,41.0,29.98,South,179,5.0,12.0,54,0.00,,,0.00,,2013-03-04 12:42:00,
2013-03-04 14:52:00,58.0,42.0,29.98,SSW,201,6.0,10.0,55,0.00,,,0.00,,2013-03-04 12:52:00,
2013-03-04 15:01:00,58.0,41.0,29.98,SW,222,3.0,8.0,54,0.00,,,0.00,,2013-03-04 13:01:00,
2013-03-04 15:11:00,58.0,41.0,29.98,SW,222,3.0,8.0,54,0.00,,,0.00,,2013-03-04 13:11:00,
2013-03-04 15:21:00,59.0,41.0,29.97,SW,223,3.0,8.0,52,0.00,,,0.00,,2013-03-04 13:21:00,
2013-03-04 15:31:00,59.0,42.0,29.98,SW,233,4.0,8.0,54,0.00,,,0.00,,2013-03-04 13:31:00,
2013-03-04 15:41:00,59.0,42.0,29.98,SW,233,4.0,8.0,54,0.00,,,0.00,,2013-03-04 13:41:00,
2013-03-04 15:52:00,58.0,42.0,29.97,SE,130,4.0,9.0,56,0.00,,,0.00,,2013-03-04 13:52:00,
2013-03-04 16:01:00,58.0,43.0,29.97,SSE,165,2.0,11.0,57,0.00,,,0.00,,2013-03-04 14:01:00,
2013-03-04 16:11:00,58.0,43.0,29.97,SSE,165,2.0,11.0,57,0.00,,,0.00,,2013-03-04 14:11:00,
2013-03-04 16:21:00,58.0,42.0,29.97,SSE,164,2.0,9.0,56,0.00,,,0.00,,2013-03-04 14:21:00,
2013-03-04 16:31:00,58.0,43.0,29.98,SW,234,2.0,10.0,58,0.00,,,0.00,,2013-03-04 14:31:00,
2013-03-04 16:41:00,58.0,43.0,29.98,SW,234,2.0,10.0,58,0.00,,,0.00,,2013-03-04 14:41:00,
2013-03-04 16:52:00,58.0,43.0,29.98,NW,315,2.0,9.0,57,0.00,,,0.00,,2013-03-04 14:52:00,
2013-03-04 17:01:00,58.0,42.0,29.98,SSW,198,5.0,10.0,56,0.00,,,0.00,,2013-03-04 15:01:00,
2013-03-04 17:11:00,58.0,42.0,29.98,SSW,198,5.0,10.0,56,0.00,,,0.00,,2013-03-04 15:11:00,
2013-03-04 17:21:00,58.0,43.0,29.98,SSW,192,0.0,9.0,57,0.00,,,0.00,,2013-03-04 15:21:00,
2013-03-04 17:31:00,58.0,43.0,29.98,SSW,194,3.0,6.0,57,0.00,,,0.00,,2013-03-04 15:31:00,
2013-03-04 17:41:00,58.0,43.0,29.98,SSW,194,3.0,6.0,57,0.00,,,0.00,,2013-03-04 15:41:00,
2013-03-04 17:52:00,58.0,43.0,29.98,SSW,198,3.0,7.0,57,0.00,,,0.00,,2013-03-04 15:52:00,
2013-03-04 18:02:00,57.0,43.0,29.98,SE,140,5.0,9.0,60,0.00,,,0.00,,2013-03-04 16:02:00,
2013-03-04 18:11:00,57.0,43.0,29.98,SE,140,5.0,9.0,60,0.00,,,0.00,,2013-03-04 16:11:00,
2013-03-04 18:21:00,56.0,43.0,29.99,SE,136,5.0,9.0,62,0.00,,,0.00,,2013-03-04 16:21:00,
2013-03-04 18:31:00,55.0,43.0,30.00,SE,136,3.0,9.0,63,0.00,,,0.00,,2013-03-04 16:31:00,
2013-03-04 18:41:00,55.0,43.0,30.00,SE,136,3.0,9.0,63,0.00,,,0.00,,2013-03-04 16:41:00,
2013-03-04 18:52:00,55.0,43.0,30.01,SE,136,1.0,4.0,64,0.00,,,0.00,,2013-03-04 16:52:00,
2013-03-04 19:01:00,54.0,43.0,30.01,SE,136,1.0,3.0,65,0.00,,,0.00,,2013-03-04 17:01:00,
2013-03-04 19:11:00,54.0,43.0,30.01,SE,136,1.0,3.0,65,0.00,,,0.00,,2013-03-04 17:11:00,
2013-03-04 19:21:00,54.0,43.0,30.02,SE,136,0.0,4.0,65,0.00,,,0.00,,2013-03-04 17:21:00,
2013-03-04 19:31:00,54.0,43.0,30.02,SE,136,0.0,4.0,65,0.00,,,0.00,,2013-03-04 17:31:00,
2013-03-04 19:42:00,54.0,43.0,30.02,SE,136,0.0,4.0,65,0.00,,,0.00,,2013-03-04 17:42:00,
2013-03-04 19:52:00,53.0,42.0,30.03,SE,136,2.0,3.0,66,0.00,,,0.00,,2013-03-04 17:52:00,
2013-03-04 20:01:00,53.0,42.0,30.03,SE,136,0.0,3.0,67,0.00,,,0.00,,2013-03-04 18:01:00,
2013-03-04 20:11:00,53.0,42.0,30.03,SE,136,0.0,3.0,67,0.00,,,0.00,,2013-03-04 18:11:00,
2013-03-04 20:21:00,52.0,41.0,30.04,SE,136,2.0,4.0,67,0.00,,,0.00,,2013-03-04 18:21:00,
2013-03-04 20:31:00,52.0,42.0,30.04,SE,136,1.0,4.0,68,0.00,,,0.00,,2013-03-04 18:31:00,
2013-03-04 20:41:00,52.0,42.0,30.04,SE,136,1.0,4.0,68,0.00,,,0.00,,2013-03-04 18:41:00,
2013-03-04 20:52:00,52.0,42.0,30.05,SE,136,0.0,3.0,68,0.00,,,0.00,,2013-03-04 18:52:00,
2013-03-04 21:01:00,52.0,42.0,30.05,SE,136,0.0,0.0,69,0.00,,,0.00,,2013-03-04 19:01:00,
2013-03-04 21:11:00,52.0,42.0,30.05,SE,136,0.0,0.0,69,0.00,,,0.00,,2013-03-04 19:11:00,
2013-03-04 21:21:00,52.0,42.0,30.06,SE,136,0.0,4.0,69,0.00,,,0.00,,2013-03-04 19:21:00,
2013-03-04 21:31:00,51.0,42.0,30.06,SE,136,0.0,2.0,70,0.00,,,0.00,,2013-03-04 19:31:00,
2013-03-04 21:41:00,51.0,42.0,30.06,SE,136,0.0,2.0,70,0.00,,,0.00,,2013-03-04 19:41:00,
2013-03-04 21:52:00,51.0,42.0,30.06,SE,136,0.0,2.0,70,0.00,,,0.00,,2013-03-04 19:52:00,
2013-03-04 22:01:00,51.0,42.0,30.07,SE,136,0.0,1.0,71,0.00,,,0.00,,2013-03-04 20:01:00,
2013-03-04 22:11:00,51.0,42.0,30.08,SE,136,0.0,2.0,71,0.00,,,0.00,,2013-03-04 20:11:00,
2013-03-04 22:21:00,51.0,42.0,30.08,SE,136,0.0,2.0,71,0.00,,,0.00,,2013-03-04 20:21:00,
2013-03-04 22:32:00,51.0,42.0,30.08,SE,136,0.0,0.0,72,0.00,,,0.00,,2013-03-04 20:32:00,
2013-03-04 22:41:00,51.0,42.0,30.08,SE,136,0.0,0.0,72,0.00,,,0.00,,2013-03-04 20:41:00,
2013-03-04 22:52:00,51.0,42.0,30.08,SE,136,1.0,3.0,72,0.00,,,0.00,,2013-03-04 20:52:00,
2013-03-04 23:01:00,50.0,41.0,30.08,SE,136,0.0,2.0,72,0.00,,,0.00,,2013-03-04 21:01:00,
2013-03-04 23:11:00,50.0,41.0,30.08,SE,136,0.0,2.0,72,0.00,,,0.00,,2013-03-04 21:11:00,
2013-03-04 23:21:00,50.0,42.0,30.08,SE,136,1.0,3.0,73,0.00,,,0.00,,2013-03-04 21:21:00,
2013-03-04 23:31:00,50.0,42.0,30.09,SE,136,2.0,3.0,74,0.00,,,0.00,,2013-03-04 21:31:00,
2013-03-04 23:41:00,50.0,42.0,30.09,SE,136,2.0,3.0,74,0.00,,,0.00,,2013-03-04 21:41:00,
2013-03-04 23:52:00,50.0,42.0,30.09,SE,136,2.0,3.0,75,0.00,,,0.00,,2013-03-04 21:52:00,